Time,TemperatureF,DewpointF,PressureIn,WindDirection,WindDirectionDegrees,WindSpeedMPH,WindSpeedGustMPH,Humidity,HourlyPrecipIn,Conditions,Clouds,dailyrainin,SoftwareType,DateUTC
2013-01-02 10:29:00,22.1,13.0,30.07,South,188,0.0,-999.0,69,-99.99,,,0.00,weatherlink.com 1.10,2013-01-02 15:29:00,
2013-01-02 10:44:00,22.9,13.0,30.06,NW,309,4.0,-999.0,66,-99.99,,,0.00,weatherlink.com 1.10,2013-01-02 15:44:00,
2013-01-02 10:59:00,24.0,13.0,30.05,NNW,347,2.0,-999.0,64,-99.99,,,0.00,weatherlink.com 1.10,2013-01-02 15:59:00,
2013-01-02 11:14:00,24.9,13.0,30.04,WNW,302,4.0,-999.0,62,-99.99,,,0.00,weatherlink.com 1.10,2013-01-02 16:14:00,
2013-01-02 11:29:00,25.4,14.0,30.03,NNW,342,1.0,-999.0,62,-99.99,,,0.00,weatherlink.com 1.10,2013-01-02 16:29:00,
2013-01-02 11:44:00,26.0,14.0,30.03,NNW,348,7.0,-999.0,62,-99.99,,,0.00,weatherlink.com 1.10,2013-01-02 16:44:00,
2013-01-02 11:59:00,26.4,14.0,30.03,South,188,3.0,-999.0,61,-99.99,,,0.00,weatherlink.com 1.10,2013-01-02 16:59:00,
2013-01-02 12:14:00,26.7,15.0,30.02,NW,305,1.0,-999.0,61,-99.99,,,0.00,weatherlink.com 1.10,2013-01-02 17:14:00,
2013-01-02 12:30:00,27.4,15.0,30.02,NNW,334,1.0,-999.0,60,-99.99,,,0.00,weatherlink.com 1.10,2013-01-02 17:30:00,
2013-01-02 12:45:00,27.7,16.0,30.02,SW,225,3.0,-999.0,62,-99.99,,,0.00,weatherlink.com 1.10,2013-01-02 17:45:00,
2013-01-02 13:00:00,28.0,16.0,30.01,NW,323,6.0,-999.0,61,-99.99,,,0.00,weatherlink.com 1.10,2013-01-02 18:00:00,
2013-01-02 13:15:00,28.3,16.0,30.01,WNW,294,1.0,-999.0,61,-99.99,,,0.00,weatherlink.com 1.10,2013-01-02 18:15:00,
2013-01-02 13:30:00,28.5,16.0,30.02,NNW,335,4.0,-999.0,61,-99.99,,,0.00,weatherlink.com 1.10,2013-01-02 18:30:00,
2013-01-02 13:45:00,28.5,16.0,30.02,West,278,0.0,-999.0,60,-99.99,,,0.00,weatherlink.com 1.10,2013-01-02 18:45:00,
2013-01-02 14:00:00,28.5,16.0,30.03,WNW,286,2.0,-999.0,60,-99.99,,,0.00,weatherlink.com 1.10,2013-01-02 19:00:00,
2013-01-02 14:15:00,28.6,17.0,30.04,NNW,339,1.0,-999.0,61,-99.99,,,0.00,weatherlink.com 1.10,2013-01-02 19:15:00,
2013-01-02 14:30:00,28.5,17.0,30.05,WSW,242,0.0,-999.0,62,-99.99,,,0.00,weatherlink.com 1.10,2013-01-02 19:30:00,
2013-01-02 14:45:00,28.7,17.0,30.05,NNW,341,0.0,-999.0,62,-99.99,,,0.00,weatherlink.com 1.10,2013-01-02 19:45:00,
2013-01-02 15:00:00,28.8,17.0,30.06,West,266,0.0,-999.0,61,-99.99,,,0.00,weatherlink.com 1.10,2013-01-02 20:00:00,
2013-01-02 15:16:00,29.1,17.0,30.06,North,355,4.0,-999.0,62,-99.99,,,0.00,weatherlink.com 1.10,2013-01-02 20:16:00,
2013-01-02 15:31:00,29.1,17.0,30.06,NW,319,0.0,-999.0,61,-99.99,,,0.00,weatherlink.com 1.10,2013-01-02 20:31:00,
2013-01-02 15:46:00,29.2,17.0,30.06,SSW,202,0.0,-999.0,60,-99.99,,,0.00,weatherlink.com 1.10,2013-01-02 20:46:00,
2013-01-02 16:01:00,29.2,18.0,30.06,WNW,294,0.0,-999.0,63,-99.99,,,0.00,weatherlink.com 1.10,2013-01-02 21:01:00,
2013-01-02 16:16:00,29.0,17.0,30.07,WNW,290,0.0,-999.0,61,-99.99,,,0.00,weatherlink.com 1.10,2013-01-02 21:16:00,
2013-01-02 16:31:00,29.1,17.0,30.07,NW,326,0.0,-999.0,60,-99.99,,,0.00,weatherlink.com 1.10,2013-01-02 21:31:00,
2013-01-02 16:46:00,29.0,17.0,30.07,West,266,1.0,-999.0,61,-99.99,,,0.00,weatherlink.com 1.10,2013-01-02 21:46:00,
2013-01-02 17:01:00,28.9,17.0,30.08,NW,318,0.0,-999.0,61,-99.99,,,0.00,weatherlink.com 1.10,2013-01-02 22:01:00,
2013-01-02 17:16:00,28.8,17.0,30.08,WNW,294,0.0,-999.0,61,-99.99,,,0.00,weatherlink.com 1.10,2013-01-02 22:16:00,
2013-01-02 17:31:00,28.6,17.0,30.09,West,267,0.0,-999.0,63,-99.99,,,0.00,weatherlink.com 1.10,2013-01-02 22:31:00,
2013-01-02 18:02:00,28.4,18.0,30.10,West,264,1.0,-999.0,64,-99.99,,,0.00,weatherlink.com 1.10,2013-01-02 23:02:00,
2013-01-02 18:17:00,28.3,17.0,30.10,West,264,0.0,-999.0,64,-99.99,,,0.00,weatherlink.com 1.10,2013-01-02 23:17:00,
2013-01-02 18:32:00,28.2,18.0,30.12,WNW,302,0.0,-999.0,66,-99.99,,,0.00,weatherlink.com 1.10,2013-01-02 23:32:00,
2013-01-02 18:47:00,28.1,18.0,30.12,West,275,0.0,-999.0,67,-99.99,,,0.00,weatherlink.com 1.10,2013-01-02 23:47:00,
2013-01-02 19:02:00,27.9,19.0,30.12,West,275,0.0,-999.0,68,-99.99,,,0.00,weatherlink.com 1.10,2013-01-03 00:02:00,
2013-01-02 19:17:00,27.9,19.0,30.12,WSW,238,0.0,-999.0,68,-99.99,,,0.00,weatherlink.com 1.10,2013-01-03 00:17:00,
2013-01-02 19:47:00,27.4,18.0,30.13,SSW,212,0.0,-999.0,68,-99.99,,,0.00,weatherlink.com 1.10,2013-01-03 00:47:00,
2013-01-02 20:02:00,27.2,18.0,30.12,SSW,212,0.0,-999.0,69,-99.99,,,0.00,weatherlink.com 1.10,2013-01-03 01:02:00,
2013-01-02 20:17:00,27.1,19.0,30.12,SW,215,0.0,-999.0,70,-99.99,,,0.00,weatherlink.com 1.10,2013-01-03 01:17:00,
2013-01-02 20:32:00,27.0,18.0,30.12,SW,214,0.0,-999.0,70,-99.99,,,0.00,weatherlink.com 1.10,2013-01-03 01:32:00,
2013-01-02 20:47:00,27.0,18.0,30.13,SW,218,1.0,-999.0,70,-99.99,,,0.00,weatherlink.com 1.10,2013-01-03 01:47:00,
2013-01-02 21:03:00,27.1,19.0,30.13,South,188,0.0,-999.0,70,-99.99,,,0.00,weatherlink.com 1.10,2013-01-03 02:03:00,
2013-01-02 21:18:00,27.0,18.0,30.14,West,279,0.0,-999.0,70,-99.99,,,0.00,weatherlink.com 1.10,2013-01-03 02:18:00,
2013-01-02 21:33:00,26.9,19.0,30.14,West,279,0.0,-999.0,71,-99.99,,,0.00,weatherlink.com 1.10,2013-01-03 02:33:00,
2013-01-02 21:48:00,26.6,19.0,30.15,West,279,0.0,-999.0,72,-99.99,,,0.00,weatherlink.com 1.10,2013-01-03 02:48:00,
2013-01-02 22:03:00,26.1,19.0,30.16,West,279,0.0,-999.0,73,-99.99,,,0.00,weatherlink.com 1.10,2013-01-03 03:03:00,
2013-01-02 22:18:00,25.8,19.0,30.15,West,279,0.0,-999.0,74,-99.99,,,0.00,weatherlink.com 1.10,2013-01-03 03:18:00,